Weather History for Whiteman AFB, MO

Change the Weather History Date:

Saturday, January 11, 2014

  Actual Average Record
Temperature  
Mean Temperature 38 °F -  
Max Temperature 46 °F 36 °F 62 °F (2013)
Min Temperature 30 °F 20 °F -5 °F (1997)
Degree Days  
Heating Degree Days 26    
Moisture  
Dew Point 32 °F    
Average Humidity 86    
Maximum Humidity 100    
Minimum Humidity 57    
Precipitation  
Precipitation 0.01 in - - ()
Sea Level Pressure  
Sea Level Pressure 29.75 in    
Wind  
Wind Speed 10 mph (West)    
Max Wind Speed 16 mph    
Max Gust Speed 22 mph    
Visibility 9 miles    
Events Rain    
Averages and records for this station are not official NWS values.
T = Trace of Precipitation, MM = Missing Value Source: NWS Daily Summary

Daily Weather History Graph

Daily Weather History Graph

Search for Another Location

Airport:

Trip Planner

Search our weather history database for the weather conditions in past years. The results will help you decide how hot, cold, wet, or windy it might be!

Date:

Astronomy

Jan. 11, 2014 Rise Set
Actual Time 7:31 AM CST 5:12 PM CST
Civil Twilight 7:02 AM CST 5:42 PM CST
Nautical Twilight 6:29 AM CST 6:14 PM CST
Astronomical Twilight 5:57 AM CST 6:46 PM CST
Moon 1:56 PM CST (1/11) 3:37 AM CST (1/11)
Length of Visible Light 10h 39m
Length of Day
9h 40m
Waxing Gibbous, 83% of the Moon is Illuminated
Jan 11
Waxing Gibbous
Jan 15
Full
Jan 23
Last Quarter
Jan 30
New
Feb 6
First Quarter

Hourly Weather History & Observations

Time (CST) Temp. Windchill Dew Point Humidity Pressure Visibility Wind Dir Wind Speed Gust Speed Precip Events Conditions
12:05 AM 37.4 °F 30.8 °F 35.6 °F 93% 29.61 in 9.0 mi West 9.2 mph - N/A   Overcast
12:10 AM 37.4 °F 30.8 °F 35.6 °F 93% 29.61 in 10.0 mi West 9.2 mph - N/A   Light Drizzle
12:15 AM 37.4 °F 30.3 °F 35.6 °F 93% 29.61 in 9.0 mi West 10.4 mph - N/A   Light Drizzle
12:35 AM 37.4 °F 30.3 °F 35.6 °F 93% 29.62 in 7.0 mi West 10.4 mph - N/A   Light Drizzle
12:36 AM 37.4 °F 30.8 °F 35.6 °F 93% 29.62 in 7.0 mi West 9.2 mph - N/A   Overcast
12:58 AM 36.3 °F 28.4 °F 35.2 °F 96% 29.65 in 6.0 mi West 11.5 mph - 0.00 in   Overcast
1:08 AM 35.6 °F 27.1 °F 35.6 °F 100% 29.62 in 10.0 mi WNW 12.7 mph - N/A   Overcast
1:18 AM 35.6 °F 28.6 °F 33.8 °F 93% 29.63 in 10.0 mi WNW 9.2 mph - N/A   Overcast
1:30 AM 35.6 °F 28.0 °F 33.8 °F 93% 29.64 in 10.0 mi West 10.4 mph - N/A   Overcast
1:58 AM 35.8 °F 28.3 °F 34.0 °F 93% 29.67 in 10.0 mi West 10.4 mph - 0.00 in Rain Light Rain
2:28 AM 35.6 °F 28.6 °F 33.8 °F 93% 29.65 in 9.0 mi West 9.2 mph - N/A Rain Light Rain
2:58 AM 35.1 °F 27.9 °F 33.6 °F 94% 29.68 in 10.0 mi West 9.2 mph - 0.01 in   Light Drizzle
3:16 AM 35.6 °F 28.6 °F 32.0 °F 87% 29.67 in 9.0 mi West 9.2 mph - N/A   Overcast
3:31 AM 35.6 °F 28.0 °F 32.0 °F 87% 29.68 in 10.0 mi West 10.4 mph - N/A   Overcast
3:36 AM 35.6 °F 28.0 °F 32.0 °F 87% 29.68 in 9.0 mi West 10.4 mph - N/A   Overcast
3:46 AM 35.6 °F 27.5 °F 32.0 °F 87% 29.69 in 9.0 mi West 11.5 mph - N/A   Overcast
3:58 AM 35.2 °F 26.6 °F 33.6 °F 94% 29.71 in 10.0 mi West 12.7 mph - 0.00 in   Overcast
4:03 AM 35.6 °F 28.0 °F 32.0 °F 87% 29.69 in 10.0 mi West 10.4 mph - N/A   Overcast
4:23 AM 35.6 °F 28.0 °F 32.0 °F 87% 29.70 in 10.0 mi West 10.4 mph - N/A   Overcast
4:53 AM 33.8 °F 27.7 °F 32.0 °F 93% 29.69 in 10.0 mi West 6.9 mph - N/A   Scattered Clouds
4:58 AM 33.8 °F 27.7 °F 32.0 °F 93% 29.72 in 10.0 mi West 6.9 mph - N/A   Partly Cloudy
5:48 AM 32.0 °F 24.2 °F 32.0 °F 100% 29.72 in 9.0 mi West 9.2 mph - N/A   Mostly Cloudy
5:58 AM 33.4 °F 27.3 °F 31.6 °F 93% 29.75 in 9.0 mi West 6.9 mph - N/A   Mostly Cloudy
6:58 AM 33.3 °F 25.1 °F 31.5 °F 93% 29.76 in 7.0 mi WSW 10.4 mph - N/A   Mostly Cloudy
7:23 AM 32.0 °F 23.6 °F 32.0 °F 100% 29.74 in 6.0 mi WSW 10.4 mph - N/A   Mostly Cloudy
7:30 AM 32.0 °F 24.2 °F 32.0 °F 100% 29.75 in 5.0 mi WSW 9.2 mph - N/A   Mostly Cloudy
7:57 AM 32.4 °F 24.0 °F 30.9 °F 94% 29.79 in 5.0 mi WSW 10.4 mph - N/A   Scattered Clouds
8:57 AM 34.0 °F 25.5 °F 31.8 °F 92% 29.81 in 5.0 mi WSW 11.5 mph - N/A   Scattered Clouds
9:58 AM 36.9 °F 28.7 °F 32.9 °F 86% 29.81 in 10.0 mi WSW 12.7 mph - N/A   Mostly Cloudy
10:58 AM 38.3 °F 31.4 °F 32.9 °F 81% 29.83 in 10.0 mi WSW 10.4 mph - N/A   Mostly Cloudy
11:58 AM 39.7 °F 31.2 °F 32.7 °F 76% 29.81 in 10.0 mi West 16.1 mph - N/A   Partly Cloudy
12:58 PM 41.9 °F 35.0 °F 33.3 °F 71% 29.81 in 10.0 mi WNW 12.7 mph - N/A   Clear
1:58 PM 45.1 °F 39.1 °F 33.1 °F 63% 29.81 in 10.0 mi West 12.7 mph - N/A   Clear
2:58 PM 46.2 °F 39.5 °F 31.6 °F 57% 29.83 in 10.0 mi West 16.1 mph 21.9 mph N/A   Clear
3:58 PM 46.2 °F 40.5 °F 32.5 °F 59% 29.86 in 10.0 mi West 12.7 mph - N/A   Partly Cloudy
4:58 PM 43.7 °F 38.1 °F 30.2 °F 59% 29.88 in 10.0 mi WNW 10.4 mph - N/A   Clear
5:58 PM 38.5 °F 33.4 °F 29.1 °F 69% 29.91 in 10.0 mi West 6.9 mph - N/A   Clear
6:58 PM 37.4 °F 32.8 °F 29.1 °F 72% 29.93 in 10.0 mi West 5.8 mph - N/A   Clear
7:58 PM 36.5 °F 31.8 °F 29.1 °F 75% 29.95 in 10.0 mi SW 5.8 mph - N/A   Clear
8:58 PM 34.2 °F 28.2 °F 28.9 °F 81% 29.96 in 10.0 mi SW 6.9 mph - N/A   Clear
9:58 PM 32.2 °F 26.7 °F 27.9 °F 84% 29.97 in 10.0 mi SSW 5.8 mph - N/A   Clear
10:58 PM 31.5 °F 24.9 °F 27.3 °F 85% 29.97 in 10.0 mi SSW 6.9 mph - N/A   Clear
11:58 PM 30.2 °F 23.4 °F 26.2 °F 85% 29.95 in 10.0 mi South 6.9 mph - N/A   Clear